Location: Newark
(45.5000°N, 11.4167°E)
Time: 09:58:18
(UTC+00:00)

Transit 4A - All Passes

Search period start: 26 August 2019 00:00
Search period end: 05 September 2019 00:00
Orbit: 864 x 981 km, 66.8° (Epoch: 25 August)

Date Brightness Start Highest point End Pass type
(mag) Time Alt. Az. Time Alt. Az. Time Alt. Az.
26 Aug - 01:36:38 10° NW 01:42:49 71° WSW 01:48:46 10° SSE visible
26 Aug - 03:26:09 10° W 03:27:59 11° W 03:29:50 10° WSW visible
26 Aug - 15:01:06 10° SSE 15:05:30 20° ESE 15:09:56 10° ENE daylight
26 Aug - 16:44:44 10° SW 16:51:10 82° WNW 16:57:36 10° NNE daylight
26 Aug - 18:33:37 10° W 18:38:32 23° NW 18:43:26 10° NNE visible
26 Aug - 20:26:30 10° NNW 20:27:34 10° N 20:28:36 10° N visible
26 Aug - 22:14:17 10° N 22:17:07 13° NNE 22:19:53 10° NE visible
26 Aug - 23:59:45 10° NNW 00:05:29 36° NE 00:11:02 10° ESE visible
27 Aug - 01:46:08 10° NW 01:52:03 49° WSW 01:57:47 10° S visible
27 Aug - 15:09:13 10° SSE 15:14:35 29° ESE 15:19:56 10° NE daylight
27 Aug - 16:54:15 10° SW 17:00:35 60° NW 17:06:55 10° NNE daylight
27 Aug - 18:44:04 10° WNW 18:48:20 18° NNW 18:52:36 10° NNE visible
27 Aug - 22:23:24 10° N 22:27:02 16° NNE 22:30:36 10° ENE visible
28 Aug - 00:09:01 10° NNW 00:15:03 49° NE 00:20:52 10° SE visible
28 Aug - 01:55:46 10° NW 02:01:13 34° WSW 02:06:30 10° S visible
28 Aug - 15:17:48 10° S 15:23:43 41° ESE 15:29:39 10° NE daylight
28 Aug - 17:04:00 10° WSW 17:10:06 44° NW 17:16:11 10° NNE daylight
28 Aug - 18:54:42 10° WNW 18:58:13 15° NNW 19:01:43 10° N visible
28 Aug - 22:32:33 10° NNW 22:36:54 19° NNE 22:41:08 10° ENE visible
29 Aug - 00:18:18 10° NNW 00:24:31 67° NE 00:30:29 10° SE visible
29 Aug - 02:05:37 10° NW 02:10:18 23° WSW 02:14:52 10° SSW visible
29 Aug - 15:26:40 10° SSW 15:32:56 59° ESE 15:39:12 10° NE daylight
29 Aug - 17:13:56 10° WSW 17:19:41 34° NW 17:25:25 10° NNE daylight
29 Aug - 19:05:31 10° NW 19:08:10 13° NNW 19:10:49 10° N visible
29 Aug - 20:56:31 10° N 20:57:45 11° N 20:58:58 10° NNE visible
29 Aug - 22:41:43 10° NNW 22:46:40 24° NE 22:51:29 10° E visible
30 Aug - 00:27:39 10° NNW 00:33:54 88° WSW 00:39:53 10° SSE visible
30 Aug - 02:15:56 10° WNW 02:19:18 15° WSW 02:22:37 10° SW visible
30 Aug - 13:53:18 10° SE 13:56:48 15° ESE 14:00:17 10° ENE daylight
30 Aug - 15:35:49 10° SSW 15:42:13 83° ESE 15:48:38 10° NE daylight
30 Aug - 17:24:04 10° W 17:29:22 26° NW 17:34:36 10° NNE daylight
30 Aug - 19:16:29 10° NNW 19:18:11 11° NNW 19:19:52 10° N visible
30 Aug - 21:05:32 10° N 21:07:46 12° NNE 21:09:58 10° NE visible
30 Aug - 22:50:55 10° NNW 22:56:22 30° NE 23:01:39 10° ESE visible
31 Aug - 00:37:05 10° NW 00:43:12 63° WSW 00:49:03 10° SSE visible
31 Aug - 14:01:00 10° SSE 14:05:49 23° ESE 14:10:38 10° ENE daylight
31 Aug - 15:45:11 10° SW 15:51:36 73° NW 15:58:00 10° NNE daylight
31 Aug - 17:34:25 10° W 17:39:06 21° NNW 17:43:46 10° NNE daylight
31 Aug - 19:27:48 10° N 19:28:13 10° N 19:28:39 10° N visible
31 Aug - 21:14:38 10° N 21:17:43 14° NNE 21:20:47 10° NE visible
31 Aug - 23:00:08 10° NNW 23:05:59 40° NE 23:11:37 10° ESE visible
01 Sep - 00:46:38 10° NW 00:52:24 43° WSW 00:57:58 10° S visible
01 Sep - 14:09:18 10° S 14:14:54 33° ESE 14:20:30 10° NE daylight
01 Sep - 15:54:47 10° SW 16:01:03 53° NW 16:07:17 10° NNE daylight
01 Sep - 17:44:57 10° WNW 17:48:56 17° NNW 17:52:54 10° NNE daylight
01 Sep - 21:23:45 10° N 21:27:38 17° NNE 21:31:27 10° ENE visible
01 Sep - 23:09:24 10° NNW 23:15:29 54° NE 23:21:22 10° SE visible
02 Sep - 00:56:20 10° NW 01:01:32 29° WSW 01:06:34 10° SSW visible
02 Sep - 14:18:00 10° S 14:24:04 47° ESE 14:30:09 10° NE daylight
02 Sep - 16:04:36 10° WSW 16:10:35 40° NW 16:16:33 10° NNE daylight
02 Sep - 17:55:39 10° NW 17:58:50 14° NNW 18:02:01 10° N daylight
02 Sep - 21:32:54 10° NNW 21:37:28 20° NNE 21:41:54 10° E visible
02 Sep - 23:18:43 10° NNW 23:24:56 76° NE 23:30:55 10° SE visible
03 Sep - 01:06:19 10° WNW 01:10:35 20° WSW 01:14:45 10° SSW visible
03 Sep - 12:46:13 10° ESE 12:48:07 11° E 12:50:00 10° E daylight
03 Sep - 14:26:59 10° SSW 14:33:19 67° ESE 14:39:39 10° NE daylight
03 Sep - 16:14:37 10° WSW 16:20:12 31° NW 16:25:46 10° NNE daylight
03 Sep - 18:06:31 10° NW 18:08:49 12° NNW 18:11:06 10° N daylight
03 Sep - 19:56:50 10° N 19:58:24 11° NNE 19:59:56 10° NNE visible
03 Sep - 21:42:05 10° NNW 21:47:12 26° NE 21:52:12 10° E visible
03 Sep - 23:28:06 10° NW 23:34:17 78° WSW 23:40:14 10° SSE visible
04 Sep - 01:16:58 10° WNW 01:19:34 13° W 01:22:07 10° SW visible
04 Sep - 12:53:01 10° SE 12:57:05 18° ESE 13:01:08 10° ENE daylight
04 Sep - 14:36:13 10° SSW 14:42:39 88° NW 14:49:03 10° NNE daylight
04 Sep - 16:24:50 10° W 16:29:54 24° NW 16:34:56 10° NNE daylight
04 Sep - 18:17:35 10° NNW 18:18:50 11° N 18:20:05 10° N visible
04 Sep - 20:05:53 10° N 20:08:24 12° NNE 20:10:53 10° NE visible
04 Sep - 21:51:17 10° NNW 21:56:53 33° NE 22:02:17 10° ESE visible
04 Sep - 23:37:33 10° NW 23:43:33 55° WSW 23:49:19 10° S visible
